Regional Weather Roundup
Issued by NWS Memphis, TN

Home | Current Version | Previous Version | Text Only | Print | Product List | Glossary On
Versions: 1 2 3 4 5 6 7 8 9 10 11 12 13 14 15 16 17 18 19 20 21 22 23 24 25 26 27 28 29 30 31 32 33 34 35 36 37 38 39 40 41 42 43 44 45 46 47 48 49 50
000
ASUS44 KMEG 202110
RWRMEG
MEMPHIS CWA HOURLY WEATHER ROUNDUP
NATIONAL WEATHER SERVICE MEMPHIS TN
300 PM CST SAT JAN 20 2018

...WEST TENNESSEE...

CITY           SKY/WX    TMP DP  RH WIND       PRES   REMARKS
MEMPHIS INTL   CLOUDY    59  48  67 S12       30.10F
JACKSON        CLOUDY    58  45  62 S10       30.12S
COVINGTON      CLOUDY    59  48  67 S10       30.10F
SOMERVILLE     CLOUDY    61  46  59 S7        30.10F
BOLIVAR        CLOUDY    61  45  55 S7        30.11F
LEXINGTON      CLOUDY    61  45  55 S8        30.12F
SELMER         MOSUNNY   63  46  55 SW9       30.12F
SAVANNAH       SUNNY     64  46  52 SW13G20   30.13F
DYERSBURG      CLOUDY    52  40  63 S7        30.09F
UNION CITY     CLOUDY    48  34  57 S7        30.09S
PARIS          CLOUDY    48  34  57 S8        30.09F
HUNTINGDON     CLOUDY    55  39  54 S8        30.10S


...EASTERN ARKANSAS...

CITY           SKY/WX    TMP DP  RH WIND       PRES   REMARKS
JONESBORO      CLOUDY    52  44  74 S10       30.06F
WEST MEMPHIS   CLOUDY    53  47  79 S14       30.09S
BATESVILLE     CLOUDY    55  46  71 S12G20    30.04S
NEWPORT        FAIR      52  43  71 S10       30.06S
WALNUT RIDGE   CLOUDY    50  41  71 S12       30.05F
BLYTHEVILLE    CLOUDY    49  49 100 S8        30.08F
SEARCY         CLOUDY    56  46  69 S9        30.06S
STUTTGART      CLOUDY    58  51  78 S10       30.07F
PINE BLUFF     CLOUDY    62  54  74 S14       30.06F
MONTICELLO     CLOUDY    66  53  63 S10G20    30.08S


...NORTH MISSISSIPPI...

CITY           SKY/WX    TMP DP  RH WIND       PRES   REMARKS
TUPELO         CLOUDY    64  38  38 SE10      30.15F
OXFORD         CLOUDY    61  46  59 S8G15     30.14F
BATESVILLE     CLOUDY    61  46  57 S7        30.14S
OLIVE BRANCH   CLOUDY    59  50  72 S12       30.10S
TUNICA           N/A     54  45  71 S9        30.11F
CLARKSDALE     PTSUNNY   59  48  67 S12       30.12S
CORINTH        FAIR      64  41  42 S12       30.13F
GREENWOOD      PTSUNNY   67  50  54 S13       30.12F
COLUMBUS       FAIR      67  42  41 SE12      30.16F
STARKVILLE     FAIR      68  37  32 S10       30.17F
GOLDEN TRIANGL FAIR      67  38  34 S10       30.17S


...SOUTHEAST MISSOURI...

CITY           SKY/WX    TMP DP  RH WIND       PRES   REMARKS
KENNETT        CLOUDY    48  41  76 S5        30.05F
MALDEN         CLOUDY    45  37  76 S7        30.07F
WEST PLAINS    MOSUNNY   59  45  59 S15G24    29.96S
POPLAR BLUFF   CLOUDY    47  37  68 S9        30.04F
CAPE GIRARDEAU CLOUDY    43  33  68 S13       30.05F


...NORTHWEST ALABAMA...

CITY           SKY/WX    TMP DP  RH WIND       PRES   REMARKS
MUSCLE SHOALS  FAIR      66  39  37 SW12      30.16F


...MIDDLE TENNESSEE...

CITY           SKY/WX    TMP DP  RH WIND       PRES   REMARKS
NASHVILLE      FAIR      64  28  25 S12       30.14F
CLARKSVILLE    CLOUDY    56  41  57 S12G21    30.10F
COLUMBIA       SUNNY     63  32  31 SW16      30.12F


...WESTERN KENTUCKY...

CITY           SKY/WX    TMP DP  RH WIND       PRES   REMARKS
PADUCAH        CLOUDY    46  34  62 VRB5      30.08S
FORT CAMPBELL  CLOUDY    49  36  61 CALM      30.10S


...CENTRAL ARKANSAS...

CITY           SKY/WX    TMP DP  RH WIND       PRES   REMARKS
LITTLE ROCK    CLOUDY    60  52  74 S10       30.04F


SKY/WX REPORTED AS FAIR MEANS FEW OR NO CLOUDS BELOW
12 THOUSAND FEET.




USA.gov is the U.S. government's official web portal to all federal, state and local government web resources and services.